Skip Page Navigation
NASA JPL Caltech
NASA Logo - Jet Propulsion Laboratory + View the NASA Portal
+ Near-Earth Object (NEO) Program
Search JPL
JPL Home Earth Solar System Stars & Galaxies Technology
JPL Solar System Dynamics
BODIES ORBITS EPHEMERIDES TOOLS PHYSICAL DATA DISCOVERY FAQ SITE MAP
JPL Small-Body Database Browser
Search: [ help ]  
2990 Trimberger (1981 EN27)
Classification: Main-belt Asteroid          SPK-ID: 2002990
Ephemeris | Orbit Diagram | Orbital Elements | Physical Parameters | Discovery Circumstances | Close-Approach Data ]

[ show orbit diagram ]
Orbital Elements at Epoch 2457000.5 (2014-Dec-09.0) TDB
Reference: JPL 12 (heliocentric ecliptic J2000)
 Element Value Uncertainty (1-sigma)   Units 
e .1220302702439278 4.9934e-08  
a 2.439770853923572 1.6031e-08 AU
q 2.14204495728602 1.2358e-07 AU
i 2.799286045831293 5.4172e-06 deg
node 171.8295452304709 0.00011962 deg
peri 319.4155999703983 0.00012333 deg
M 344.8878207928796 3.2068e-05 deg
tp 2457058.931438657985
(2015-Feb-05.43143866)
0.00012427 JED
period 1391.944710857023
3.81
1.3719e-05
3.756e-08
d
yr
n .2586309622731692 2.5492e-09 deg/d
Q 2.737496750561124 1.7988e-08 AU
  Orbit Determination Parameters
   # obs. used (total)      1116  
   data-arc span      13720 days (37.56 yr)  
   first obs. used      1977-04-10  
   last obs. used      2014-11-02  
   planetary ephem.      DE431  
   SB-pert. ephem.      SB431-BIG16  
   condition code      0  
   fit RMS      .49723  
   data source      ORB  
   producer      Otto Matic  
   solution date      2014-Nov-10 12:51:48  

Additional Information
 Earth MOID = 1.15773 AU 
 T_jup = 3.490 
[ show covariance matrix ]

Ephemeris | Orbit Diagram | Orbital Elements | Physical Parameters | Discovery Circumstances | Close-Approach Data ]

Physical Parameter Table
Parameter Symbol Value Units Sigma Reference Notes
absolute magnitude H 13.6 mag n/a MPO313443  

2990 Trimberger (1981 EN27)          Discovered 1981-Mar-02 by Bus, S. J. at Siding Spring (413)
Reference: DISCOVERY.DBLast Updated: 2003-08-29

[ show close-approach data ]
Alternate Designations
 1981 EN27 = 1973 AQ1 = 1977 GL 
Ephemeris | Orbit Diagram | Orbital Elements | Physical Parameters | Discovery Circumstances | Close-Approach Data ]
ABOUT SSD CREDITS/AWARDS PRIVACY/COPYRIGHT GLOSSARY LINKS
FirstGov 2014-Dec-18 13:27 UT
(server date/time)  
NASA Home Page
Site Manager:   Donald K. Yeomans
Webmaster  Alan B. Chamberlin